Regional Weather Roundup
Issued by NWS

Home | Current Version | Previous Version | Text Only | Print | Product List | Glossary On
Versions: 1 2 3 4 5 6 7 8 9 10 11 12 13 14 15 16 17 18 19 20 21 22 23 24 25 26 27 28 29 30 31 32 33 34 35 36 37 38 39 40 41 42 43 44 45 46 47 48 49 50
000
ASUS46 KSEW 012110
RWRWA

WASHINGTON REGIONAL WEATHER ROUNDUP
NATIONAL WEATHER SERVICE SEATTLE WA
200 PM PDT MON SEP 01 2014

NOTE:"FAIR" INDICATES FEW OR NO CLOUDS BELOW 12,000 FEET WITH NO
SIGNIFICANT WEATHER AND/OR OBSTRUCTIONS TO VISIBILITY.

WAZ505-507>509-012200-
SEATTLE, TACOMA, EVERETT, AND VICINITY

CITY           SKY/WX    TMP DP  RH WIND       PRES   REMARKS
EVERETT        MOSUNNY   68  52  56 SW10      30.07F
BOEING FIELD   MOSUNNY   73  53  49 VRB3      30.06F
RENTON         SUNNY     71  53  52 SW9       30.06F
SEATAC AIRPORT MOSUNNY   70  52  52 W6        30.08F
JBLM-MCCHORD   PTSUNNY   73  55  53 VRB2      30.06F
PUYALLUP       NOT AVBL
JBLM-FT LEWIS  DRIZZLE   73  54  51 VRB3      30.05F
TACOMA NARROWS MOSUNNY   69  52  54 SE8       30.07F
$$

WAZ001-503-506-510-514-515-012200-
NORTH INTERIOR

CITY           SKY/WX    TMP DP  RH WIND       PRES   REMARKS
BELLINGHAM     PTSUNNY   69  52  54 S9        30.05F
FRIDAY HARBOR  PTSUNNY   68  54  60 E8        30.07S
EASTSOUND      MOSUNNY   68  54  60 S9        30.03F
PORT ANGELES   PTSUNNY   69  52  54 VRB3      30.06S
NAS WHIDBEY    MOSUNNY   72  55  55 W7        30.06F
BURLINGTON     SUNNY     73  55  53 SW12      30.06F
$$

WAZ020-022-039-040-504-511-512-012200-
SOUTHWEST INTERIOR

CITY           SKY/WX    TMP DP  RH WIND       PRES   REMARKS
SHELTON        PTSUNNY   74  56  53 SW10      30.03F
OLYMPIA        PTSUNNY   72  52  49 SW5       30.06F
CHEHALIS       FAIR      75  54  46 NW5       30.05F
KELSO          MOSUNNY   75  52  43 W3        30.08S
VANCOUVER      SUNNY     75  48  38 VRB3      30.04F
SCAPPOOSE, OR  SUNNY     76  53  44 VRB5      30.03F
PORTLAND, OR   MOSUNNY   75  51  43 CALM      30.04F
$$

WAZ021-516-517-012200-
WASHINGTON COAST

CITY           SKY/WX    TMP DP  RH WIND       PRES   REMARKS
FORKS          LGT RAIN  63  62  97 S6        30.08R FOG
HOQUIAM        CLOUDY    66  61  84 W12       30.07F
ASTORIA, OR    PTSUNNY   69  55  60 W10       30.07F
$$

WAZ019-023-024-040-518-519-012200-
CASCADE MOUNTAINS AND COLUMBIA GORGE

CITY           SKY/WX    TMP DP  RH WIND       PRES   REMARKS
STAMPEDE PASS  NOT AVBL
TROUTDALE, OR  SUNNY     76  46  34 CALM      30.03F
THE DALLES, OR SUNNY     82  49  31 N16       29.97F
$$

WAZ026-027-041>044-520-521-012200-
EAST SLOPES

CITY           SKY/WX    TMP DP  RH WIND       PRES   REMARKS
OMAK           SUNNY     77  39  25 VRB7      29.95F
WENATCHEE      SUNNY     78  40  25 E6        29.97F
ELLENSBURG     SUNNY     78  45  30 NW12G23   30.00F
YAKIMA         SUNNY     77  42  28 NE6       30.00F
$$

WAZ028-034-035-012200-
COLUMBIA BASIN

CITY           SKY/WX    TMP DP  RH WIND       PRES   REMARKS
EPHRATA        SUNNY     76  39  26 S8        29.98F
MOSES LAKE     SUNNY     77  39  25 S10       30.00F
PASCO          SUNNY     77  45  32 E5        30.00F
HERMISTON, OR  SUNNY     78  45  30 W9        29.99F
$$

WAZ036>038-012200-
NORTHEAST WASHINGTON

CITY           SKY/WX    TMP DP  RH WIND       PRES   REMARKS
SPOKANE GEIGER MOSUNNY   71  38  29 SW12G25   30.02F
SPOKANE FELTS  MOSUNNY   73  37  27 SW8G20    30.02F
FAIRCHILD AFB  SUNNY     71  37  29 SW13G20   30.03F
COEURDALENE,ID PTSUNNY   72  41  33 W16       30.02S
DEER PARK      SUNNY     71  39  31 SW13      30.01F
$$

WAZ029>033-012200-
SOUTHEAST WASHINGTON

CITY           SKY/WX    TMP DP  RH WIND       PRES   REMARKS
PULLMAN        MOSUNNY   69  40  34 VRB3      30.07F
LEWISTON, ID   SUNNY     76  41  28 N6        30.01F
WALLA WALLA    SUNNY     77  44  30 S9        30.02F
PENDLETON, OR  SUNNY     76  42  29 VRB7      30.02F
$$


USA.gov is the U.S. government's official web portal to all federal, state and local government web resources and services.